Change the Weather History Date:

Saturday, February 25, 2012

  Actual Average (KDSM) Record (KDSM)
Temperature  
Mean Temperature 24 °F 31 °F  
Max Temperature 30 °F 40 °F 69 °F (1995)
Min Temperature 17 °F 22 °F -8 °F (2010)
Degree Days  
Heating Degree Days 42 34  
Month to date heating degree days 952  
Since 1 July heating degree days 4732  
Cooling Degree Days 0 0  
Month to date cooling degree days 0  
Year to date cooling degree days 0  
Moisture  
Dew Point 14 °F    
Average Humidity 64    
Maximum Humidity 74    
Minimum Humidity 47    
Precipitation  
Precipitation 0.00 in 0.06 in 1.07 in (1951)
Month to date precipitation 1.12  
Year to date precipitation 2.12  
Snow  
Snow 0.00 in 0.20 in 6.50 in (1929)
Month to date snowfall 7.2  
Since 1 July snowfall 27.6  
Snow Depth -    
Sea Level Pressure  
Sea Level Pressure 30.20 in    
Wind  
Wind Speed 9 mph (WSW)    
Max Wind Speed 15 mph    
Max Gust Speed 23 mph    
Visibility 10 miles    
Events Snow    
T = Trace of Precipitation, MM = Missing Value Source: NWS Daily Summary

Daily Weather History Graph

Daily Weather History Graph

Search for Another Location

Airport or City:

Trip Planner

Search our weather history database for the weather conditions in past years. The results will help you decide how hot, cold, wet, or windy it might be!

Date:

Astronomy

Feb. 25, 2012 Rise Set
Actual Time 6:55 AM CST 5:59 PM CST
Civil Twilight 6:27 AM CST 6:27 PM CST
Nautical Twilight 5:55 AM CST 6:59 PM CST
Astronomical Twilight 5:23 AM CST 7:31 PM CST
Moon 8:16 AM CST (2/25) 10:05 PM CST (2/25)
Length of Visible Light 11h 59m
Length of Day
11h 03m
Waxing Crescent, 14% of the Moon is Illuminated
Feb 25
Waxing Crescent
Feb 29
First Quarter
Mar 8
Full
Mar 14
Last Quarter
Mar 22
New

Hourly Weather History & Observations

Time (CST) Temp. Windchill Dew Point Humidity Pressure Visibility Wind Dir Wind Speed Gust Speed Precip Events Conditions
12:35 AM 24.8 °F 13.4 °F 15.8 °F 69% 30.17 in 10.0 mi NW 12.7 mph 17.3 mph N/A   Scattered Clouds
12:55 AM 23.0 °F 12.4 °F 15.8 °F 74% 30.17 in 10.0 mi WNW 10.4 mph 18.4 mph N/A   Scattered Clouds
1:15 AM 21.2 °F 9.5 °F 12.2 °F 68% 30.18 in 10.0 mi WNW 11.5 mph 21.9 mph N/A   Clear
1:35 AM 21.2 °F 8.3 °F 12.2 °F 68% 30.18 in 10.0 mi WNW 13.8 mph 17.3 mph N/A   Clear
1:55 AM 21.2 °F 7.8 °F 10.4 °F 63% 30.18 in 10.0 mi NW 15.0 mph 20.7 mph N/A   Clear
2:15 AM 21.2 °F 7.8 °F 10.4 °F 63% 30.19 in 10.0 mi WNW 15.0 mph 21.9 mph N/A   Clear
3:35 AM 19.4 °F 7.2 °F 10.4 °F 68% 30.21 in 10.0 mi NW 11.5 mph 23.0 mph N/A   Clear
3:55 AM 19.4 °F 7.2 °F 10.4 °F 68% 30.22 in 10.0 mi NW 11.5 mph - N/A   Scattered Clouds
4:15 AM 19.4 °F 8.6 °F 10.4 °F 68% 30.23 in 10.0 mi NW 9.2 mph - N/A   Mostly Cloudy
4:35 AM 19.4 °F 10.4 °F 10.4 °F 68% 30.23 in 10.0 mi NW 6.9 mph - N/A   Overcast
4:55 AM 21.2 °F 9.5 °F 12.2 °F 68% 30.24 in 10.0 mi NW 11.5 mph 18.4 mph N/A   Overcast
5:15 AM 21.2 °F 13.6 °F 12.2 °F 68% 30.24 in 10.0 mi WNW 5.8 mph - N/A Snow Light Snow
6:15 AM 19.4 °F 7.9 °F 12.2 °F 74% 30.26 in 10.0 mi WNW 10.4 mph - N/A   Clear
6:35 AM 19.4 °F 8.6 °F 10.4 °F 68% 30.26 in 10.0 mi WNW 9.2 mph - N/A   Clear
6:55 AM 17.6 °F 6.4 °F 10.4 °F 73% 30.25 in 10.0 mi NW 9.2 mph - N/A   Clear
7:15 AM 17.6 °F 8.2 °F 8.6 °F 68% 30.26 in 10.0 mi NW 6.9 mph - N/A   Clear
7:35 AM 17.6 °F 6.4 °F 8.6 °F 68% 30.27 in 10.0 mi WNW 9.2 mph - N/A   Clear
7:55 AM 17.6 °F 6.4 °F 8.6 °F 68% 30.29 in 10.0 mi West 9.2 mph - N/A   Clear
8:15 AM 17.6 °F 6.4 °F 10.4 °F 73% 30.29 in 10.0 mi West 9.2 mph - N/A   Clear
8:35 AM 17.6 °F 7.3 °F 10.4 °F 73% 30.31 in 10.0 mi West 8.1 mph - N/A   Clear
8:55 AM 19.4 °F 7.9 °F 10.4 °F 68% 30.32 in 10.0 mi West 10.4 mph - N/A   Clear
9:15 AM 19.4 °F 7.9 °F 10.4 °F 68% 30.32 in 10.0 mi WNW 10.4 mph - N/A   Clear
9:55 AM 21.2 °F 10.9 °F 10.4 °F 63% 30.31 in 10.0 mi WNW 9.2 mph - N/A   Clear
10:35 AM 21.2 °F 14.9 °F 10.4 °F 63% 30.31 in 10.0 mi West 4.6 mph - N/A   Clear
10:55 AM 23.0 °F 14.7 °F 10.4 °F 59% 30.31 in 10.0 mi West 6.9 mph - N/A   Clear
11:15 AM 23.0 °F 18.4 °F 10.4 °F 59% 30.31 in 10.0 mi West 3.5 mph - N/A   Clear
11:35 AM 24.8 °F 20.5 °F 12.2 °F 59% 30.31 in 10.0 mi WNW 3.5 mph - N/A   Clear
11:55 AM 24.8 °F - 10.4 °F 54% 30.30 in 10.0 mi Calm Calm - N/A   Clear
12:15 PM 24.8 °F - 10.4 °F 54% 30.29 in 10.0 mi Calm Calm - N/A   Clear
12:35 PM 24.8 °F 20.5 °F 12.2 °F 59% 30.28 in 10.0 mi West 3.5 mph - N/A   Clear
12:55 PM 26.6 °F - 12.2 °F 55% 30.27 in 10.0 mi Calm Calm - N/A   Clear
1:15 PM 28.4 °F - 12.2 °F 51% 30.26 in 10.0 mi Calm Calm - N/A   Clear
1:35 PM 28.4 °F - 12.2 °F 51% 30.25 in 10.0 mi Calm Calm - N/A   Clear
1:55 PM 28.4 °F 24.6 °F 12.2 °F 51% 30.25 in 10.0 mi SSW 3.5 mph - N/A   Clear
2:15 PM 28.4 °F 24.6 °F 14.0 °F 55% 30.24 in 10.0 mi SW 3.5 mph - N/A   Clear
2:35 PM 28.4 °F - 12.2 °F 51% 30.24 in 10.0 mi Calm Calm - N/A   Clear
2:55 PM 30.2 °F - 12.2 °F 47% 30.22 in 10.0 mi Calm Calm - N/A   Clear
3:15 PM 30.2 °F 24.3 °F 17.6 °F 60% 30.21 in 10.0 mi ENE 5.8 mph - N/A   Clear
3:35 PM 30.2 °F 22.6 °F 17.6 °F 60% 30.21 in 10.0 mi East 8.1 mph - N/A   Clear
4:15 PM 30.2 °F 23.4 °F 15.8 °F 55% 30.19 in 10.0 mi SSE 6.9 mph - N/A   Clear
4:35 PM 30.2 °F 21.9 °F 15.8 °F 55% 30.18 in 10.0 mi SE 9.2 mph - N/A   Clear
4:55 PM 30.2 °F 21.3 °F 15.8 °F 55% 30.17 in 10.0 mi SSE 10.4 mph - N/A   Clear
5:15 PM 28.4 °F 19.7 °F 17.6 °F 64% 30.16 in 10.0 mi ESE 9.2 mph - N/A   Clear
5:55 PM 28.4 °F 19.1 °F 15.8 °F 59% 30.14 in 10.0 mi SE 10.4 mph - N/A   Clear
6:15 PM 28.4 °F 19.7 °F 17.6 °F 64% 30.13 in 10.0 mi ESE 9.2 mph - N/A   Clear
6:35 PM 26.6 °F 18.2 °F 17.6 °F 69% 30.13 in 10.0 mi ESE 8.1 mph - N/A   Clear
6:55 PM 26.6 °F 17.5 °F 17.6 °F 69% 30.12 in 10.0 mi ESE 9.2 mph - N/A   Clear
7:15 PM 26.6 °F 17.5 °F 17.6 °F 69% 30.12 in 10.0 mi ESE 9.2 mph - N/A   Clear
7:35 PM 26.6 °F 17.5 °F 17.6 °F 69% 30.12 in 10.0 mi East 9.2 mph - N/A   Clear
7:55 PM 26.6 °F 18.2 °F 17.6 °F 69% 30.12 in 10.0 mi ESE 8.1 mph - N/A   Clear
8:15 PM 24.8 °F 16.1 °F 17.6 °F 74% 30.12 in 10.0 mi ESE 8.1 mph - N/A   Clear
8:35 PM 24.8 °F 16.1 °F 17.6 °F 74% 30.11 in 10.0 mi ESE 8.1 mph - N/A   Clear
8:55 PM 26.6 °F 18.2 °F 17.6 °F 69% 30.12 in 10.0 mi SE 8.1 mph - N/A   Clear
9:35 PM 26.6 °F 16.8 °F 17.6 °F 69% 30.10 in 10.0 mi SE 10.4 mph - N/A   Clear
9:55 PM 26.6 °F 15.7 °F 17.6 °F 69% 30.09 in 10.0 mi SE 12.7 mph - N/A   Clear
10:15 PM 26.6 °F 17.5 °F 17.6 °F 69% 30.07 in 10.0 mi ESE 9.2 mph - N/A   Clear
10:35 PM 26.6 °F 16.8 °F 17.6 °F 69% 30.06 in 10.0 mi ESE 10.4 mph - N/A   Clear
10:55 PM 26.6 °F 16.2 °F 19.4 °F 74% 30.05 in 10.0 mi ESE 11.5 mph - N/A   Clear
11:15 PM 26.6 °F 15.2 °F 17.6 °F 69% 30.03 in 10.0 mi SE 13.8 mph 17.3 mph N/A   Clear
11:35 PM 26.6 °F 15.2 °F 17.6 °F 69% 30.01 in 10.0 mi ESE 13.8 mph - N/A   Clear
11:55 PM 28.4 °F 18.0 °F 17.6 °F 64% 29.99 in 10.0 mi ESE 12.7 mph - N/A   Clear